GSE Systems Debt to Equity Ratio 2006-2020 | GVP

Current and historical debt to equity ratio values for GSE Systems (GVP) over the last 10 years. The debt/equity ratio can be defined as a measure of a company's financial leverage calculated by dividing its long-term debt by stockholders' equity. GSE Systems debt/equity for the three months ending March 31, 2020 was 0.20.
GSE Systems Debt/Equity Ratio Historical Data
Date Long Term Debt Shareholder's Equity Debt to Equity Ratio
2020-03-31 $0.00B $0.01B 0.20
2019-12-31 $0.00B $0.02B 0.15
2019-09-30 $0.02B $0.03B 0.68
2019-06-30 $0.02B $0.03B 0.71
2019-03-31 $0.02B $0.03B 0.77
2018-12-31 $0.01B $0.03B 0.21
2018-09-30 $0.01B $0.03B 0.24
2018-06-30 $0.01B $0.03B 0.25
2018-03-31 $0.00B $0.03B 0.00
2017-12-31 $0.00B $0.03B 0.00
2017-09-30 $0.00B $0.02B 0.00
2017-06-30 $0.00B $0.02B 0.00
2017-03-31 $0.00B $0.02B 0.00
2016-12-31 $0.00B $0.02B 0.00
2016-09-30 $0.00B $0.02B 0.00
2016-06-30 $0.00B $0.02B 0.00
2016-03-31 $0.00B $0.02B 0.00
2015-12-31 $0.00B $0.02B 0.00
2015-09-30 $0.00B $0.02B 0.00
2015-06-30 $0.00B $0.02B 0.00
2015-03-31 $0.00B $0.02B 0.00
2014-12-31 $0.00B $0.02B 0.00
2014-09-30 $0.00B $0.03B 0.00
2014-06-30 $0.00B $0.03B 0.00
2014-03-31 $0.00B $0.03B 0.00
2013-12-31 $0.00B $0.03B 0.00
2013-09-30 $0.00B $0.03B 0.00
2013-06-30 $0.00B $0.03B 0.00
2013-03-31 $0.00B $0.04B 0.00
2012-12-31 $0.00B $0.04B 0.00
2012-09-30 $0.00B $0.04B 0.00
2012-06-30 $0.00B $0.04B 0.00
2012-03-31 $0.00B $0.04B 0.00
2011-12-31 $0.00B $0.04B 0.00
2011-09-30 $0.00B $0.04B 0.00
2011-06-30 $0.00B $0.04B 0.00
2011-03-31 $0.00B $0.04B 0.00
2010-12-31 $0.00B $0.04B 0.00
2010-09-30 $0.00B $0.04B 0.00
2010-06-30 $0.00B $0.04B 0.00
2010-03-31 $0.00B $0.04B 0.00
2009-12-31 $0.00B $0.04B 0.00
2009-09-30 $0.00B $0.04B 0.00
2009-06-30 $0.00B $0.02B 0.00
2009-03-31 $0.00B $0.02B 0.00
2008-12-31 $0.00B $0.02B 0.00
2008-09-30 $0.00B $0.02B 0.00
2008-06-30 $0.00B $0.02B 0.00
2008-03-31 $0.00B $0.02B 0.00
2007-12-31 $0.00B $0.02B 0.00
2007-09-30 $0.00B $0.02B 0.00
2007-06-30 $0.00B $0.02B 0.00
2007-03-31 $0.00B $0.01B 0.00
2006-12-31 $0.00B $0.01B 0.00
2006-09-30 $0.00B $0.01B 0.00
2006-06-30 $0.00B $0.01B 0.00
2006-03-31 $0.00B $0.01B 0.08
2005-12-31 $0.00B $0.00B 0.97
2005-09-30 $0.00B $0.00B 0.26
2005-06-30 $0.00B $0.00B 0.17
2005-03-31 $0.00B $0.01B 0.00
Sector Industry Market Cap Revenue
Computer and Technology Computer Software $0.020B $0.083B
GSE Systems, Inc. develops and delivers business and technology solutions by applying process control and simulation software, systems and services to the pharmaceutical and chemical research & development, energy, process and manufacturing industries worldwide. The company's products are used in the following industries: specialty chemical, food and beverage, petroleum refining, pharmaceutical, fossil and nuclear power generation, metals and water treatment. (PRESS RELEASE)
Stock Name Country Market Cap PE Ratio
Microsoft (MSFT) United States $1000.000B 36.22
Adobe (ADBE) United States $212.631B 57.72
SAP SE (SAP) Germany $190.546B 34.55
Salesforce, Inc (CRM) United States $177.641B 243.41
Oracle (ORCL) United States $168.593B 15.70
Intuit (INTU) United States $79.321B 63.24
VMware (VMW) United States $59.279B 30.62
Autodesk (ADSK) United States $50.827B 137.21
Dassault Systemes SA (DASTY) France $45.803B 50.58
Cadence Design Systems (CDNS) United States $29.884B 29.53
Synopsys (SNPS) United States $29.451B 63.73
ANSYS (ANSS) United States $26.490B 63.15
Citrix Systems (CTXS) United States $16.994B 28.60
SS&C Technologies Holdings (SSNC) United States $15.857B 15.95
Open Text (OTEX) Canada $12.156B 28.84
PTC (PTC) United States $9.975B 46.69
Pegasystems (PEGA) United States $9.135B 0.00
Trend Micro (TMICY) Japan $8.616B 31.12
Nuance Communications (NUAN) United States $8.212B 48.48
Aspen Technology (AZPN) United States $6.872B 29.64
Manhattan Associates (MANH) United States $5.842B 72.42
Konami (KNMCY) Japan $4.962B 27.59
Descartes Systems Group (DSGX) Canada $4.770B 120.15
ACI Worldwide (ACIW) United States $3.549B 37.64
Blackbaud (BLKB) United States $3.258B 48.68
Verint Systems (VRNT) United States $2.833B 19.17
Bottomline Technologies (EPAY) United States $2.296B 158.42
Cornerstone OnDemand (CSOD) United States $2.295B 26.27
CommVault Systems (CVLT) United States $1.999B 78.35
Progress Software (PRGS) United States $1.648B 14.48
Sapiens (SPNS) Israel $1.557B 36.47
PROS Holdings (PRO) United States $1.553B 0.00
MicroStrategy (MSTR) United States $1.197B 48.67
Simulations Plus (SLP) United States $1.157B 120.20
Rosetta Stone (RST) United States $0.665B 0.00
QAD (QADB) United States $0.654B 3200.00
Magic Software Enterprises (MGIC) Israel $0.628B 20.38
American Software (AMSWA) United States $0.557B 66.04
Avid Technology (AVID) United States $0.386B 31.39
Canaan (CAN) China $0.367B 0.00
OptimizeRx (OPRX) United States $0.252B 0.00
Icad Inc (ICAD) United States $0.244B 0.00
GlobalSCAPE (GSB) United States $0.178B 14.03
Smith Micro Software (SMSI) United States $0.163B 13.55
ServiceSource (SREV) United States $0.163B 0.00
Park City (PCYG) United States $0.103B 104.80
Neonode (NEON) Sweden $0.081B 0.00
NetSol Technologies (NTWK) United States $0.039B 11.85
CounterPath (CPAH) Canada $0.027B 0.00
BSQUARE (BSQR) United States $0.020B 0.00